TIME,DELAY(SENSOR),PRES,T(CTD),SAL,OXYGEN,RAWTEMP,T(OPTODE),TCPHASE,FLUOR,BETA(BETA700),BETA(BETA412),BETA(BETA440),CDOM,C(CSC),ED(ED412.40),ED(ED444.00),ED(ED489.70),ED(ED554.30),LU(LU411.80),LU(LU443.40),LU(LU489.60),LU(LU554.10),COMP,TILTX,TILTX(TILTY),CHECK
1347571651,5808,495.7000122070312500,5.9022998809814450,34.1932983398437500,54.8810501098632800,621.6292724609375000,5.8832888603210450,52.3855209350585940,51,104,89,80,80,15274,2147754889,2147421440,2148005513,2147870482,2147633846,2147073828,2148243382,2147200658,289,5,13,44742
1347571764,5811,485.0100097656250000,5.9629998207092285,34.1613006591796900,58.2047080993652340,619.7999267578125000,5.9427590370178220,51.9144401550293000,52,105,86,81,81,15274,2147753819,2147420763,2148004745,2147873179,2147632969,2147078710,2148248182,2147199908,3534,4,13,33580
1347571885,5812,473.8500061035156000,6.0343999862670900,34.1585006713867200,62.6705894470214840,617.6463012695312000,6.0127201080322270,51.2933883666992200,53,103,88,81,79,15279,2147750701,2147420790,2148005449,2147873371,2147636498,2147078692,2148250011,2147201435,2434,4,13,3932
1347572006,5807,462.9400024414062500,6.1286997795104980,34.1503982543945300,65.5679016113281200,614.6314086914062000,6.1105861663818360,50.8785095214843750,52,104,91,80,80,15277,2147752173,2147420288,2148005266,2147876580,2147631277,2147074889,2148246034,2147201563,2501,5,13,63597
1347572129,5807,452.4800109863281000,6.2045001983642580,34.1333007812500000,70.6684417724609400,612.4310302734375000,6.1819548606872560,50.2119712829589840,53,104,88,81,81,15273,2147753773,2147420306,2148006674,2147875538,2147631424,2147075200,2148246555,2147198710,1852,4,13,62162
1347572272,5807,441.2900085449219000,6.5658998489379880,34.1370010375976560,78.9676666259765600,601.3538818359375000,6.5405240058898930,49.0504989624023440,52,104,90,80,81,15275,2147750372,2147422738,2148002770,2147872969,2147631369,2147079030,2148247954,2147198838,1252,4,13,37381
1347572407,5807,431.0499877929687500,6.6996998786926270,34.1291007995605500,84.4352035522461000,597.0374145507812000,6.6799302101135250,48.3542594909668000,53,106,93,81,80,15275,2147749979,2147421540,2148002038,2147873645,2147632530,2147083812,2148242349,2147197778,500,5,13,9721
1347572572,5808,419.6300048828125000,6.9524002075195310,34.1207008361816400,93.7985229492187500,588.8535156250000000,6.9437541961669920,47.1842308044433600,50,106,89,81,79,15270,2147749147,2147420845,2148004672,2147873773,2147628955,2147076982,2148239990,2147201398,3147,4,13,48675
1347572740,5808,407.4100036621094000,7.3242001533508300,34.1136016845703100,105.0406036376953100,577.6320800781250000,7.3044929504394530,45.8183097839355500,51,105,91,80,79,15270,2147748681,2147422765,2148004443,2147871296,2147628150,2147081307,2148235254,2147198893,3565,5,13,47623
1347572872,5806,396.2999877929687500,7.7982997894287110,34.1124000549316400,119.8134994506836000,562.1796264648438000,7.7994141578674320,44.1041488647460940,51,106,92,81,78,15269,2147747757,2147421897,2148007341,2147872256,2147625645,2147081801,2148237120,2147200868,3250,4,13,19812
1347573007,5806,385.2799987792969000,8.1034002304077150,34.0975990295410160,130.5742034912109400,553.4802246093750000,8.0771408081054690,42.9609603881835940,51,109,88,79,77,15271,2147751186,2147420726,2148002212,2147874176,2147624585,2147084992,2148236836,2147201545,2413,4,13,53965
1347573139,5806,374.0499877929687500,8.1862001419067380,34.0998992919921900,138.5446929931640600,550.3953857421875000,8.1754693984985350,42.2048301696777340,50,104,89,82,76,15273,2147745600,2147419858,2148004608,2147874633,2147621339,2147090605,2148233490,2147199561,1534,4,13,965
1347573260,5806,363.2999877929687500,8.4036998748779300,34.0992012023925800,145.6365966796875000,543.0772705078125000,8.4084224700927730,41.4787406921386700,50,105,91,80,75,15270,2147745289,2147419602,2148003245,2147870116,2147622875,2147090212,2148231094,2147204480,1157,4,13,54718
1347573383,5808,352.2500000000000000,8.6392002105712890,34.1040000915527340,152.0968933105468800,536.2202148437500000,8.6263084411621100,40.8326301574707000,50,106,88,80,77,15272,2147742976,2147422802,2148000448,2147871634,2147620370,2147090468,2148233837,2147205686,1314,4,13,38123
1347573504,5811,341.6499938964844000,8.8875999450683600,34.1078987121582000,156.8753051757812500,528.9473266601562000,8.8570003509521480,40.3283500671386700,50,105,89,79,75,15271,2147741504,2147421028,2148000694,2147871350,2147620397,2147090176,2148233645,2147204178,2023,4,13,45154
1347573639,5808,330.5799865722656000,9.1995000839233400,34.1156005859375000,165.4270019531250000,518.5916137695312000,9.1847763061523440,39.4943504333496100,50,106,88,80,74,15269,2147741970,2147422784,2148004918,2147874203,2147618587,2147093248,2148231268,2147203922,2710,4,13,64085
1347573782,5806,319.6700134277344000,9.3624000549316400,34.1161994934082000,172.9479064941406200,513.4124145507812000,9.3484086990356450,38.8555793762207000,50,104,88,81,73,15273,2147738166,2147422893,2148003501,2147872923,2147619008,2147100342,2148230235,2147204534,452,4,13,22239
1347573958,5807,307.3900146484375000,9.5980997085571290,34.1012992858886700,190.2055969238281200,505.8056030273437500,9.5883808135986330,37.5453605651855500,49,105,86,80,73,15274,2147736548,2147421504,2148006464,2147872054,2147615250,2147099629,2148227410,2147207405,3090,4,14,28778
1347574093,5810,296.1199951171875000,9.8564996719360350,34.0942993164062500,194.1524963378906200,497.5357055664062500,9.8488054275512700,37.1498908996582000,48,107,88,81,71,15275,2147738505,2147420553,2148005741,2147873069,2147617024,2147108196,2148225097,2147204653,3346,3,13,46064
1347574214,5807,285.5199890136719000,10.0930995941162110,34.0996017456054700,197.1094970703125000,490.0248107910156000,10.0849199295043950,36.8354301452636700,49,103,88,80,72,15275,2147737161,2147420370,2148009691,2147872557,2147613714,2147101741,2148225462,2147204635,3255,4,13,2181
1347574337,5811,274.2999877929687500,10.4525003433227540,34.1138992309570300,199.4375000000000000,478.4917907714844000,10.4467496871948240,36.4973106384277340,49,106,87,82,71,15274,2147737014,2147420644,2148017764,2147870820,2147610797,2147107574,2148225627,2147205312,658,4,13,15012
1347574458,5808,263.1300048828125000,10.8510999679565430,34.1232986450195300,202.5881958007812500,465.8338928222656000,10.8428802490234380,36.0941390991210940,49,106,89,81,70,15270,2147737435,2147423561,2148029632,2147874386,2147609261,2147115675,2148232457,2147205778,770,4,13,50019
1347574582,5808,251.8399963378906200,11.0841999053955080,34.1295013427734400,203.3872985839843800,458.2323913574219000,11.0803003311157230,35.9209518432617200,50,106,89,80,71,15273,2147736521,2147428672,2148034642,2147871716,2147612598,2147112630,2148227712,2147204333,1104,3,13,20480
1347574703,5810,241.6699981689453000,11.3450002670288090,34.1417999267578100,203.7781982421875000,450.2904968261719000,11.3279895782470700,35.7675514221191400,48,105,90,81,71,15271,2147734144,2147430692,2148044251,2147873737,2147608091,2147115300,2148238491,2147208228,292,4,13,26984
1347574835,5804,230.8600006103515600,11.9052000045776370,34.1685981750488300,208.0854034423828000,432.2143859863281000,11.8904304504394530,35.2206993103027340,49,105,88,81,70,15267,2147731849,2147434934,2148066011,2147870619,2147606006,2147120310,2148243062,2147209993,848,4,13,3508
1347574980,5809,219.2200012207031200,12.4848003387451170,34.1926002502441400,210.7061004638672000,413.4274902343750000,12.4731798171997070,34.7705612182617200,48,104,90,80,70,15271,2147732068,2147440749,2148087780,2147871341,2147603392,2147133330,2148252635,2147209846,887,4,14,2413
1347575112,5809,209.1999969482422000,12.8901996612548830,34.2092018127441400,213.0384979248047000,399.9432983398437500,12.8904104232788090,34.4259986877441400,49,104,92,80,69,15267,2147731949,2147455405,2148127094,2147870299,2147599643,2147135222,2148264786,2147210587,3446,3,13,43248
1347575319,5811,199.1300048828125000,13.6637001037597660,34.2803993225097660,214.7425994873047000,375.6250915527344000,13.6408796310424800,33.9559097290039060,48,102,87,80,67,15267,2147728731,2147468379,2148188809,2147872393,2147598546,2147155072,2148294473,2147211757,3033,4,14,8093
1347575462,5805,195.3899993896484400,14.2769002914428710,34.3413009643554700,215.7590026855468800,356.5220947265625000,14.2288398742675780,33.6108207702636700,48,103,87,81,67,15261,2147728640,2147481892,2148228370,2147868150,2147593883,2147162934,2148311552,2147213275,306,4,14,55406
1347575602,5809,190.3500061035156200,14.5915002822875980,34.3604011535644500,214.8211975097656200,345.3503112792969000,14.5721197128295900,33.4958000183105500,50,104,88,80,68,15261,2147728804,2147494418,2148270390,2147868992,2147595190,2147175067,2148325604,2147216731,1015,4,14,34823
1347575679,5811,186.3200073242187500,14.7117996215820310,34.3838996887207000,216.2734985351562500,341.2359924316406000,14.6984500885009770,33.3544197082519500,49,107,92,81,67,15264,2147731209,2147520173,2148360210,2147872658,2147592384,2147186560,2148367341,2147217197,41,4,14,39329
1347575745,5809,182.3300018310547000,14.7447996139526370,34.3799018859863300,216.0274963378906200,338.5786132812500000,14.7800197601318360,33.3281784057617200,48,105,86,80,67,15262,2147732306,2147538870,2148423268,2147872054,2147592603,2147208649,2148393152,2147217325,3437,3,14,45037
1347575811,5810,178.1699981689453000,15.1387996673583980,34.4280014038085940,214.5404052734375000,327.4638977050781000,15.1209697723388670,33.2462806701660160,48,110,91,81,68,15256,2147735140,2147558116,2148486912,2147871396,2147592914,2147217060,2148429824,2147218331,2729,3,14,2602
1347575879,5811,174.2799987792968800,15.2875003814697270,34.4468994140625000,214.1463012695312500,322.4838867187500000,15.2736301422119140,33.1952514648437500,48,106,87,80,67,15262,2147740864,2147599853,2148607003,2147875072,2147595428,2147235309,2148486537,2147227337,2177,3,14,20227
1347575956,5807,170.5200042724609400,15.5846996307373050,34.4914016723632800,212.5610961914062500,312.5440063476562500,15.5781698226928710,33.1373100280761700,49,109,91,81,67,15256,2147742976,2147608054,2148624457,2147873755,2147595172,2147243913,2148496173,2147224969,2456,3,14,42757
1347576055,5806,167.0200042724609400,15.7959003448486330,34.5169982910156250,211.6287994384765600,306.1940917968750000,15.7726001739501950,33.0971794128418000,50,105,90,81,66,15256,2147743350,2147617289,2148625024,2147875218,2147595273,2147253074,2148493577,2147228653,2964,3,15,4147
1347576200,5808,163.0000000000000000,16.0438003540039060,34.5480003356933600,210.6194000244140600,297.2557067871094000,16.0461597442626950,33.0238800048828100,51,113,88,81,67,15242,2147754706,2147657664,2148751250,2147878345,2147596141,2147276361,2148546642,2147230848,1896,3,15,38257
1347576299,5811,158.9400024414062500,16.5039997100830080,34.6016998291015600,210.0986022949218800,282.8291931152344000,16.4874000549316400,32.8450393676757800,55,109,91,81,67,15244,2147760859,2147662354,2148752338,2147877942,2147594102,2147280786,2148551296,2147232329,601,3,14,10714
1347576398,5809,154.7299957275390600,16.9585990905761720,34.6487998962402340,210.0628967285156200,270.0271911621094000,16.8787097930908200,32.6637802124023440,56,110,88,82,66,15245,2147761051,2147672457,2148767186,2147875913,2147595648,2147292361,2148552502,2147235227,3152,3,14,54626
1347576510,5805,149.9799957275390600,17.3568992614746100,34.6986999511718750,210.2642059326172000,254.7951049804687500,17.3440799713134770,32.4365196228027340,62,110,88,81,66,15237,2147780818,2147764571,2149032073,2147878619,2147600356,2147336832,2148665270,2147240009,273,3,14,20768
1347576576,5809,146.4700012207031200,17.6130008697509770,34.7286987304687500,209.5897064208984400,245.7539062500000000,17.6202297210693360,32.3466682434082000,66,114,87,81,66,15232,2147801636,2147845504,2149257005,2147880950,2147606994,2147379410,2148764982,2147249947,3248,3,14,43345
1347576653,5811,142.6900024414062500,17.9148998260498050,34.7695007324218750,207.3753967285156200,235.4754028320312500,17.9341297149658200,32.3264389038085940,78,114,89,82,66,15219,2147819776,2147895241,2149377124,2147883794,2147612598,2147405083,2148805833,2147251602,3429,3,15,9259
1347576741,5810,138.9499969482422000,18.5027008056640620,34.8502998352050800,206.3222961425781200,217.5186004638672000,18.4825000762939450,32.1354103088378900,79,119,88,83,64,15219,2147843840,2147978285,2149576621,2147884644,2147618331,2147445302,2148880146,2147260763,3288,3,15,58731
1347576853,5812,135.2799987792968800,19.1319999694824220,34.9659004211425800,215.1737060546875000,196.8385009765625000,19.1141700744628900,31.3654594421386720,82,120,90,82,64,15213,2147884388,2148093878,2149879826,2147889563,2147632457,2147503936,2149008466,2147269668,3326,3,15,63265
1347576996,5807,131.1799926757812500,19.3705997467041000,34.9692993164062500,215.3504028320312500,189.0464935302734400,19.3522491455078120,31.2504692077636720,91,118,89,83,64,15205,2147910235,2148155913,2149996397,2147895195,2147644077,2147538889,2149051328,2147273005,446,3,15,62047
1347577130,5808,126.4199981689453100,19.4813995361328120,34.9611015319824200,213.4026947021484400,184.9893951416015600,19.4762401580810550,31.2994194030761720,96,120,88,83,64,15194,2147979876,2148313197,2150304502,2147903286,2147660690,2147603163,2149158381,2147285184,788,3,15,30472
1347577207,5812,122.4100036621093800,19.9032001495361330,34.9978981018066400,211.7281951904297000,171.5328063964843800,19.8876304626464840,31.2076797485351560,108,122,90,82,65,15178,2148089389,2148576457,2150860187,2147915236,2147695003,2147710144,2149355401,2147302326,433,2,15,54388
1347577295,5809,118.6200027465820300,20.2322998046875000,35.0367012023925800,213.8840026855468800,160.6799011230468800,20.2196197509765620,30.9463996887207030,115,125,91,84,63,15171,2148202121,2148808347,2151306477,2147926811,2147731072,2147794541,2149500726,2147312585,3492,2,15,41986
1347577394,5811,114.8000030517578100,20.6033992767334000,35.0726013183593750,214.9524993896484400,149.0812072753906200,20.5746498107910160,30.7347908020019530,123,127,93,82,65,15157,2148359561,2149133942,2151905261,2147943670,2147782674,2147924928,2149703981,2147333056,2937,2,15,6701
1347577517,5811,110.9000015258789000,20.7392997741699220,35.0858993530273440,218.0431976318359400,145.0659942626953000,20.6976108551025400,30.5201702117919920,127,127,92,82,63,15153,2148517997,2149402980,2152323620,2147954514,2147830857,2148016594,2149838336,2147346770,1891,3,15,11389
1347577638,5805,107.1900024414062500,20.8325996398925780,35.0966987609863300,220.3253021240234400,141.0061035156250000,20.8219890594482420,30.3493804931640620,132,125,90,83,64,15146,2148849609,2150023497,2153412672,2147986834,2147934427,2148247049,2150216822,2147383990,2474,3,15,37584
1347577782,5808,102.8399963378906200,20.9575004577636720,35.1077995300293000,222.7292022705078000,136.8002014160156200,20.9508705139160160,30.1720104217529300,131,127,93,84,64,15140,2149450057,2151055460,2155107547,2148044169,2148121709,2148631049,2150815579,2147439981,2437,3,16,58795
1347577881,5809,98.9000015258789000,21.3568992614746100,35.1385993957519500,224.8047943115234400,124.1658020019531200,21.3382892608642580,29.9032897949218750,142,132,93,84,63,15113,2150017170,2151890038,2156305014,2148093284,2148295067,2148910537,2151190784,2147485668,2051,2,15,18468
1347577936,5811,97.2399978637695300,21.4566001892089840,35.1497993469238300,227.5953063964843800,120.8321990966796900,21.4405803680419920,29.7226295471191400,151,129,93,85,63,15106,2150206016,2152151926,2156608228,2148105426,2148354532,2148983908,2151272795,2147492827,1222,2,15,15990
1347578013,5808,95.0699996948242200,21.5942993164062500,35.1572990417480500,229.1949005126953000,116.0765991210937500,21.5865592956542970,29.5830802917480470,149,132,91,84,63,15098,2150650093,2152803264,2157533650,2148148992,2148485504,2149185517,2151553654,2147530038,771,2,16,60522
1347578092,5809,92.4499969482421900,21.6805000305175780,35.1640014648437500,231.9698944091797000,113.2536010742187500,21.6732501983642580,29.4135704040527340,143,129,91,85,63,15098,2151472036,2154060050,2159339766,2148224228,2148743277,2149622116,2152145033,2147594130,996,3,15,10684
1347578147,5810,89.7699966430664000,21.7229995727539060,35.1660003662109400,233.2471923828125000,111.9301986694336000,21.7138900756835940,29.3357505798339840,138,127,91,86,62,15093,2152333001,2155270445,2160957933,2148301092,2149020608,2150040192,2152694299,2147661110,364,3,15,41462
1347578202,5804,86.6800003051757800,21.8131008148193360,35.1703987121582000,234.0625000000000000,108.0709991455078100,21.8324508666992200,29.2479991912841800,130,125,93,84,61,15096,2153358738,2156637750,2162628964,2148400448,2149363008,2150537737,2153292553,2147735003,100,2,15,50259
1347578257,5808,83.4700012207031200,22.0825004577636720,35.1824989318847660,234.7509002685547000,100.0829010009765600,22.0780105590820300,29.1135292053222660,115,125,95,85,62,15110,2154640301,2158382372,2164809645,2148539200,2149830957,2151229312,2154142107,2147838244,2919,3,15,64354
1347578312,5809,80.2900009155273400,22.2133007049560550,35.1912002563476560,236.4727935791015600,96.7384033203125000,22.1808795928955080,28.9905700683593750,106,124,92,84,62,15115,2156095652,2160309101,2167197101,2148714331,2150397403,2152047698,2155129334,2147964461,3246,3,16,51228
1347578367,5807,77.2799987792968800,22.2600994110107420,35.1926002502441400,238.1464996337890600,94.4438476562500000,22.2514801025390620,28.8843498229980470,105,125,96,83,61,15117,2157897691,2162650752,2170048594,2148933723,2151102034,2153058514,2156310500,2148110400,491,2,15,47955
1347578424,5804,74.2699966430664000,22.3453998565673830,35.1949996948242200,239.0251007080078000,91.6501770019531200,22.3374595642089840,28.8087196350097660,107,126,91,85,60,15111,2159809490,2164992438,2172687387,2149180141,2151860553,2154078080,2157436004,2148266185,234,2,15,48581
1347578479,5811,71.7399978637695300,22.4957008361816400,35.1985015869140600,239.9252014160156200,87.1201934814453100,22.4769401550292970,28.7102394104003900,101,124,95,86,61,15113,2161968164,2167627629,2175653485,2149457938,2152741485,2155258477,2158724882,2148439433,3423,2,15,40321
1347578534,5812,69.7200012207031200,22.5072994232177730,35.1992988586425800,240.9817962646484400,86.3317413330078100,22.5012302398681640,28.6523895263671880,93,128,91,85,60,15110,2164429275,2170590299,2178920365,2149750656,2153756059,2156590381,2160115931,2148626121,2832,2,16,56963
1347578589,5809,68.0800018310546900,22.5160999298095700,35.1991004943847660,241.5115966796875000,85.9420928955078100,22.5132293701171880,28.6234493255615230,94,127,95,86,61,15099,2166394944,2172685421,2180801673,2149953042,2154633883,2157637238,2161078317,2148753856,2311,2,16,10758
1347578655,5810,66.2900009155273400,22.5680007934570300,35.1977996826171900,241.8045959472656200,84.3369369506836000,22.5626792907714840,28.5901699066162100,91,128,91,84,60,15098,2168755657,2175009472,2182662125,2150165010,2155671981,2158788315,2162030793,2148887149,2059,3,15,30118
1347578755,5808,63.2799987792968750,22.7399997711181640,35.1990013122558600,242.8000946044922000,78.7219924926757800,22.7357292175292970,28.4748497009277340,84,128,94,86,58,15093,2173992722,2180258386,2187338715,2150706934,2158123885,2161562642,2164489069,2149227090,2604,2,15,32466
1347578810,5808,61.1100006103515600,22.9512004852294920,35.2001991271972660,243.5207977294922000,71.9197769165039000,22.9455299377441400,28.3574409484863280,84,127,95,86,62,15081,2178351597,2184759204,2191646070,2151278802,2160271835,2164013394,2166714614,2149547446,2687,3,16,14840
1347578865,5810,59.2099990844726560,23.0841007232666000,35.1972999572753900,244.9734039306640600,68.3999099731445300,23.0541706085205080,28.2492504119873050,80,130,91,86,60,15084,2182227456,2188734683,2195460086,2151796123,2162391881,2166393874,2168807844,2149841709,2550,2,16,8323
1347578920,5807,57.4700012207031250,23.1858997344970700,35.2001991271972660,245.6750946044922000,64.5120315551757800,23.1742191314697270,28.1697998046875000,77,131,95,86,60,15088,2187306377,2193999798,2200726025,2152526665,2165051108,2169387904,2171507145,2150237933,2953,2,16,51087
1347578975,5807,55.7900009155273440,23.3808002471923830,35.2028999328613300,246.2534027099609400,58.5309181213378900,23.3590393066406250,28.0700893402099600,77,133,93,85,59,15086,2190599305,2197118427,2203563090,2152995620,2167046080,2171519360,2173288146,2150503195,290,2,15,42054
1347579064,5810,53.3699989318847660,23.5352993011474600,35.2098007202148440,247.6013946533203000,53.1587791442871100,23.5251808166503900,27.9446506500244140,75,131,95,88,59,15081,2198679177,2205125613,2211138624,2154370340,2171831424,2176572205,2177550326,2151177883,3496,2,15,8554
1347579119,5810,51.2599983215332000,23.6986999511718750,35.2154006958007800,247.7350006103515600,47.0929908752441400,23.7129192352294920,27.8639106750488280,75,134,97,86,58,15067,2205718034,2211862738,2217474678,2155573540,2176378313,2181287149,2181397531,2151788160,3420,2,16,60097
1347579174,5809,49.3499984741210940,24.0165004730224600,35.2108993530273440,248.4427947998047000,38.5504188537597660,23.9776191711425780,27.7279701232910160,73,133,97,85,59,15069,2212321709,2218287451,2223470500,2156803291,2180667328,2185581156,2184843702,2152350893,3212,2,16,36202
1347579229,5807,48.2200012207031250,24.1154994964599600,35.2102012634277340,248.9181060791015600,34.5510101318359400,24.1016693115234380,27.6583595275878900,70,134,95,87,56,15069,2215391478,2220979520,2225774326,2157384228,2183321801,2188175506,2186804580,2152663652,3238,2,16,16934
1347579339,5804,46.5400009155273440,24.5310993194580080,35.2108001708984400,248.2588958740234400,21.3232498168945300,24.5125293731689450,27.5243301391601560,69,135,96,85,60,15057,2219854829,2225262820,2229589787,2158469878,2186821915,2191554806,2189318025,2153151680,2292,2,16,594
1347579450,5805,44.1699981689453100,24.6818008422851560,35.2122001647949200,247.8572998046875000,16.6410102844238280,24.6581897735595700,27.4843101501464840,69,134,95,88,58,15050,2228222290,2233643520,2237802249,2160856237,2192985600,2197722294,2194366345,2154157577,2226,2,16,43415
1347579516,5808,42.2099990844726560,24.8810005187988280,35.2151985168457000,247.0711975097656200,10.2940502166748050,24.8558197021484380,27.4404392242431640,69,133,96,88,58,15044,2228582747,2233461257,2237083538,2161571227,2194360530,2198656411,2194667501,2154373558,2473,1,16,3871
1347579604,5804,40.4700012207031250,25.0841999053955080,35.2214012145996100,245.8090057373047000,3.7049529552459717,25.0612297058105470,27.4142608642578120,66,137,96,86,58,15052,2220547977,2223986258,2226530669,2160463094,2190490139,2193804644,2189814418,2153723291,2501,1,16,15870
1347579749,5808,38.2999992370605500,26.0645999908447270,35.2766990661621100,238.7485046386718800,-26.6001892089843750,26.0093402862548830,27.3533897399902340,67,136,95,88,53,15025,2228615085,2233012123,2236198610,2164006153,2197231689,2200673883,2195536064,2155062208,2375,3,16,19829
1347580201,5806,36.2200012207031250,26.1289997100830080,35.2891006469726560,235.0619049072265600,-30.4265098571777340,26.1294593811035160,27.4715499877929700,59,134,96,87,55,15051,2220863826,2224082130,2226471808,2163472246,2201849600,2202507776,2194423104,2154859712,2567,2,15,11052
1347580267,5815,33.9300003051757800,26.1315994262695300,35.2886009216308600,235.0023956298828000,-30.5332107543945300,26.1328105926513670,27.4728507995605470,59,137,97,89,57,15050,2227658121,2231022454,2233522294,2166528457,2210743762,2210565494,2200274953,2156095104,2689,2,16,16566
1347580345,5808,30.2500000000000000,26.1333007812500000,35.2890014648437500,235.1217041015625000,-30.6250705718994140,26.1356906890869140,27.4662895202636720,59,132,97,87,55,15048,2244107392,2248339355,2251671899,2175711488,2229933321,2228285412,2213619894,2159457938,2841,1,16,56735